| time (UTC) | temp F | wind direction | speed knots | gust knots | rain 1hr in | rain 24hr in | rain mn in | humidity % | barometer mb |
| 20260507160019 | 87 | 268 | 0.9 | 4.3 | 0.00 | 0.00 | 0.00 | 12 | 1015.3 |
| 20260507155508 | 87 | 215 | 1.7 | 4.3 | 0.00 | 0.00 | 0.00 | 11 | 1015.3 |
| 20260507155007 | 87 | 175 | 2.6 | 5.2 | 0.00 | 0.00 | 0.00 | 11 | 1015.3 |
| 20260507154529 | 87 | 194 | 0.9 | 5.2 | 0.00 | 0.00 | 0.00 | 11 | 1015.3 |
| 20260507154011 | 88 | 216 | 1.7 | 3.5 | 0.00 | 0.00 | 0.00 | 11 | 1015.4 |
| 20260507153506 | 87 | 274 | 0.9 | 2.6 | 0.00 | 0.00 | 0.00 | 11 | 1015.4 |
| 20260507153035 | 86 | 264 | 0.9 | 2.6 | 0.00 | 0.00 | 0.00 | 13 | 1015.4 |
| 20260507152510 | 85 | 205 | 0.9 | 2.6 | 0.00 | 0.00 | 0.00 | 12 | 1015.4 |
| 20260507152011 | 84 | 211 | 0.9 | 1.7 | 0.00 | 0.00 | 0.00 | 13 | 1015.5 |
| 20260507151505 | 82 | 178 | 0.0 | 2.6 | 0.00 | 0.00 | 0.00 | 13 | 1015.5 |
| 20260507151004 | 82 | 184 | 1.7 | 2.6 | 0.00 | 0.00 | 0.00 | 13 | 1015.6 |
| 20260507150504 | 81 | 222 | 0.9 | 3.5 | 0.00 | 0.00 | 0.00 | 14 | 1015.5 |
| 20260507150011 | 81 | 211 | 0.9 | 3.5 | 0.00 | 0.00 | 0.00 | 17 | 1015.6 |
| 20260507145505 | 80 | 202 | 2.6 | 3.5 | 0.00 | 0.00 | 0.00 | 17 | 1015.6 |
| 20260507145007 | 80 | 186 | 1.7 | 4.3 | 0.00 | 0.00 | 0.00 | 18 | 1015.6 |
| 20260507144518 | 80 | 212 | 2.6 | 5.2 | 0.00 | 0.00 | 0.00 | 19 | 1015.6 |
| 20260507144007 | 79 | 221 | 2.6 | 5.2 | 0.00 | 0.00 | 0.00 | 20 | 1015.5 |
| 20260507143507 | 79 | 246 | 2.6 | 4.3 | 0.00 | 0.00 | 0.00 | 19 | 1015.5 |
| 20260507143025 | 78 | 216 | 1.7 | 3.5 | 0.00 | 0.00 | 0.00 | 18 | 1015.5 |
| 20260507142509 | 77 | 261 | 0.0 | 3.5 | 0.00 | 0.00 | 0.00 | 22 | 1015.4 |
| 20260507142010 | 77 | 219 | 0.9 | 3.5 | 0.00 | 0.00 | 0.00 | 21 | 1015.4 |
| 20260507141523 | 76 | 233 | 1.7 | 3.5 | 0.00 | 0.00 | 0.00 | 23 | 1015.4 |
| 20260507141007 | 75 | 196 | 1.7 | 4.3 | 0.00 | 0.00 | 0.00 | 23 | 1015.3 |
| 20260507140504 | 75 | 190 | 1.7 | 6.1 | 0.00 | 0.00 | 0.00 | 23 | 1015.3 |
| 20260507140012 | 75 | 181 | 0.0 | 6.1 | 0.00 | 0.00 | 0.00 | 23 | 1015.3 |
| 20260507135503 | 75 | 208 | 3.5 | 5.2 | 0.00 | 0.00 | 0.00 | 21 | 1015.3 |
| 20260507135005 | 74 | 352 | 0.0 | 3.5 | 0.00 | 0.00 | 0.00 | 18 | 1015.3 |
| 20260507134514 | 72 | 37 | 0.9 | 4.3 | 0.00 | 0.00 | 0.00 | 20 | 1015.2 |
| 20260507134006 | 71 | 360 | 2.6 | 8.7 | 0.00 | 0.00 | 0.00 | 20 | 1015.1 |
| 20260507133506 | 70 | 51 | 1.7 | 8.7 | 0.00 | 0.00 | 0.00 | 23 | 1015.1 |
| 20260507133026 | 69 | 56 | 1.7 | 3.5 | 0.00 | 0.00 | 0.00 | 25 | 1015.1 |
| 20260507132506 | 69 | 62 | 0.0 | 2.6 | 0.00 | 0.00 | 0.00 | 28 | 1015.0 |
| 20260507132010 | 68 | 40 | 0.0 | 1.7 | 0.00 | 0.00 | 0.00 | 28 | 1015.0 |
| 20260507131524 | 67 | 55 | 0.9 | 2.6 | 0.00 | 0.00 | 0.00 | 28 | 1015.0 |
| 20260507131007 | 67 | 5 | 0.0 | 2.6 | 0.00 | 0.00 | 0.00 | 30 | 1014.9 |
| 20260507130511 | 67 | 329 | 0.9 | 2.6 | 0.00 | 0.00 | 0.00 | 29 | 1014.9 |
| 20260507130035 | 66 | 42 | 1.7 | 2.6 | 0.00 | 0.00 | 0.00 | 29 | 1014.9 |
| 20260507125508 | 66 | 85 | 1.7 | 2.6 | 0.00 | 0.00 | 0.00 | 29 | 1014.9 |
| 20260507125003 | 65 | 55 | 1.7 | 4.3 | 0.00 | 0.00 | 0.00 | 30 | 1014.9 |
| 20260507124519 | 65 | 77 | 2.6 | 5.2 | 0.00 | 0.00 | 0.00 | 31 | 1014.9 |
| 20260507124007 | 64 | 55 | 3.5 | 5.2 | 0.00 | 0.00 | 0.00 | 31 | 1014.9 |
| 20260507123507 | 64 | 51 | 3.5 | 4.3 | 0.00 | 0.00 | 0.00 | 31 | 1014.8 |
| 20260507123015 | 64 | 54 | 2.6 | 6.1 | 0.00 | 0.00 | 0.00 | 31 | 1014.8 |
| 20260507122507 | 64 | 49 | 4.3 | 7.0 | 0.00 | 0.00 | 0.00 | 31 | 1014.7 |
| 20260507122008 | 64 | 53 | 3.5 | 7.0 | 0.00 | 0.00 | 0.00 | 31 | 1014.8 |
| 20260507121522 | 64 | 42 | 3.5 | 5.2 | 0.00 | 0.00 | 0.00 | 31 | 1014.9 |
| 20260507121008 | 64 | 34 | 3.5 | 5.2 | 0.00 | 0.00 | 0.00 | 31 | 1014.9 |
| 20260507120511 | 64 | 46 | 3.5 | 7.8 | 0.00 | 0.00 | 0.00 | 31 | 1014.9 |
| 20260507120025 | 64 | 42 | 3.5 | 7.8 | 0.00 | 0.00 | 0.00 | 31 | 1014.9 |
| 20260507115508 | 64 | 61 | 3.5 | 7.8 | 0.00 | 0.00 | 0.00 | 31 | 1014.9 |
| 20260507115013 | 64 | 19 | 3.5 | 7.8 | 0.00 | 0.00 | 0.00 | 31 | 1015.0 |
| 20260507114508 | 64 | 19 | 4.3 | 7.8 | 0.00 | 0.00 | 0.00 | 31 | 1015.0 |
| 20260507114014 | 64 | 69 | 4.3 | 7.8 | 0.00 | 0.00 | 0.00 | 31 | 1015.0 |
| 20260507113504 | 64 | 62 | 4.3 | 7.0 | 0.00 | 0.00 | 0.00 | 31 | 1015.1 |
| 20260507113014 | 63 | 36 | 3.5 | 7.0 | 0.00 | 0.00 | 0.00 | 31 | 1015.2 |
| 20260507112509 | 63 | 66 | 3.5 | 5.2 | 0.00 | 0.00 | 0.00 | 32 | 1015.2 |
| 20260507112009 | 63 | 48 | 1.7 | 3.5 | 0.00 | 0.00 | 0.00 | 31 | 1015.3 |
| 20260507111521 | 64 | 13 | 0.9 | 4.3 | 0.00 | 0.00 | 0.00 | 31 | 1015.3 |
| 20260507111006 | 64 | 28 | 0.9 | 7.0 | 0.00 | 0.00 | 0.00 | 31 | 1015.3 |
| 20260507110507 | 64 | 57 | 2.6 | 7.8 | 0.00 | 0.00 | 0.00 | 30 | 1015.3 |
| 20260507110023 | 64 | 30 | 5.2 | 7.8 | 0.00 | 0.00 | 0.00 | 31 | 1015.3 |
| 20260507105508 | 64 | 20 | 4.3 | 6.1 | 0.00 | 0.00 | 0.00 | 30 | 1015.3 |
| 20260507105007 | 64 | 11 | 2.6 | 6.1 | 0.00 | 0.00 | 0.00 | 31 | 1015.3 |
| 20260507104527 | 64 | 25 | 3.5 | 7.0 | 0.00 | 0.00 | 0.00 | 30 | 1015.3 |
| 20260507104012 | 64 | 53 | 2.6 | 7.0 | 0.00 | 0.00 | 0.00 | 31 | 1015.3 |
| 20260507103512 | 64 | 65 | 2.6 | 6.1 | 0.00 | 0.00 | 0.00 | 30 | 1015.3 |
| 20260507103026 | 65 | 74 | 2.6 | 6.1 | 0.00 | 0.00 | 0.00 | 30 | 1015.4 |
| 20260507102504 | 65 | 50 | 2.6 | 5.2 | 0.00 | 0.00 | 0.00 | 30 | 1015.5 |
| 20260507102006 | 65 | 54 | 1.7 | 4.3 | 0.00 | 0.00 | 0.00 | 30 | 1015.5 |
| 20260507101518 | 65 | 51 | 2.6 | 4.3 | 0.00 | 0.00 | 0.00 | 30 | 1015.5 |
| 20260507101007 | 64 | 46 | 3.5 | 4.3 | 0.00 | 0.00 | 0.00 | 30 | 1015.6 |
| 20260507100506 | 65 | 70 | 2.6 | 4.3 | 0.00 | 0.00 | 0.00 | 31 | 1015.6 |
| 20260507100027 | 65 | 53 | 2.6 | 5.2 | 0.00 | 0.00 | 0.00 | 30 | 1015.7 |
| 20260507095509 | 65 | 56 | 3.5 | 8.7 | 0.00 | 0.00 | 0.00 | 30 | 1015.7 |
| 20260507095007 | 65 | 63 | 3.5 | 8.7 | 0.00 | 0.00 | 0.00 | 30 | 1015.6 |
| 20260507094527 | 64 | 65 | 6.1 | 8.7 | 0.00 | 0.00 | 0.00 | 31 | 1015.7 |
| 20260507094007 | 63 | 86 | 4.3 | 6.1 | 0.00 | 0.00 | 0.00 | 31 | 1015.6 |
| 20260507093509 | 63 | 80 | 3.5 | 7.8 | 0.00 | 0.00 | 0.00 | 32 | 1015.6 |
| 20260507093028 | 63 | 52 | 4.3 | 7.8 | 0.00 | 0.00 | 0.00 | 32 | 1015.6 |
| 20260507092518 | 63 | 58 | 5.2 | 7.8 | 0.00 | 0.00 | 0.00 | 32 | 1015.7 |
| 20260507092009 | 63 | 63 | 3.5 | 7.0 | 0.00 | 0.00 | 0.00 | 32 | 1015.6 |
| 20260507091517 | 63 | 76 | 5.2 | 7.8 | 0.00 | 0.00 | 0.00 | 32 | 1015.7 |
| 20260507091006 | 63 | 49 | 5.2 | 7.8 | 0.00 | 0.00 | 0.00 | 32 | 1015.8 |
| 20260507090507 | 63 | 78 | 5.2 | 7.0 | 0.00 | 0.00 | 0.00 | 31 | 1015.8 |
| 20260507090022 | 64 | 92 | 4.3 | 8.7 | 0.00 | 0.00 | 0.00 | 31 | 1015.8 |
| 20260507085507 | 64 | 97 | 4.3 | 8.7 | 0.00 | 0.00 | 0.00 | 31 | 1015.9 |
| 20260507085006 | 65 | 59 | 4.3 | 8.7 | 0.00 | 0.00 | 0.00 | 30 | 1015.9 |
| 20260507084522 | 65 | 82 | 6.1 | 8.7 | 0.00 | 0.00 | 0.00 | 30 | 1015.8 |
| 20260507084010 | 65 | 32 | 4.3 | 8.7 | 0.00 | 0.00 | 0.00 | 30 | 1015.8 |
| 20260507083509 | 65 | 62 | 5.2 | 9.6 | 0.00 | 0.00 | 0.00 | 30 | 1015.8 |
| 20260507083025 | 65 | 42 | 5.2 | 9.6 | 0.00 | 0.00 | 0.00 | 30 | 1015.8 |
| 20260507082508 | 65 | 72 | 5.2 | 9.6 | 0.00 | 0.00 | 0.00 | 31 | 1015.9 |
| 20260507082008 | 65 | 67 | 4.3 | 7.8 | 0.00 | 0.00 | 0.00 | 31 | 1015.9 |
| 20260507081526 | 65 | 60 | 4.3 | 7.8 | 0.00 | 0.00 | 0.00 | 31 | 1015.9 |
| 20260507081010 | 64 | 80 | 5.2 | 7.8 | 0.00 | 0.00 | 0.00 | 31 | 1015.9 |
| 20260507080507 | 64 | 79 | 4.3 | 7.8 | 0.00 | 0.00 | 0.00 | 31 | 1016.0 |
| 20260507080018 | 64 | 52 | 4.3 | 7.0 | 0.00 | 0.00 | 0.00 | 31 | 1016.0 |
| 20260507075506 | 64 | 57 | 4.3 | 6.1 | 0.00 | 0.00 | 0.00 | 32 | 1016.0 |
| 20260507075009 | 64 | 65 | 3.5 | 6.1 | 0.00 | 0.00 | 0.00 | 32 | 1016.0 |
| 20260507074529 | 64 | 84 | 3.5 | 6.1 | 0.00 | 0.00 | 0.00 | 32 | 1016.1 |
| 20260507074009 | 64 | 65 | 3.5 | 5.2 | 0.00 | 0.00 | 0.00 | 32 | 1016.1 |
| 20260507073511 | 64 | 76 | 3.5 | 5.2 | 0.00 | 0.00 | 0.00 | 32 | 1016.2 |
| 20260507073026 | 64 | 67 | 2.6 | 4.3 | 0.00 | 0.00 | 0.00 | 32 | 1016.1 |
| 20260507072507 | 64 | 90 | 3.5 | 5.2 | 0.00 | 0.00 | 0.00 | 32 | 1016.2 |
| 20260507072012 | 64 | 82 | 3.5 | 7.0 | 0.00 | 0.00 | 0.00 | 32 | 1016.1 |
| 20260507071556 | 64 | 73 | 3.5 | 7.0 | 0.00 | 0.00 | 0.00 | 32 | 1016.1 |
| 20260507071011 | 64 | 57 | 3.5 | 6.1 | 0.00 | 0.00 | 0.00 | 32 | 1016.2 |
| 20260507070511 | 64 | 84 | 3.5 | 6.1 | 0.00 | 0.00 | 0.00 | 32 | 1016.2 |
| 20260507070030 | 64 | 68 | 3.5 | 5.2 | 0.00 | 0.00 | 0.00 | 32 | 1016.3 |
| 20260507065506 | 64 | 72 | 2.6 | 5.2 | 0.00 | 0.00 | 0.00 | 32 | 1016.2 |
| 20260507065006 | 64 | 68 | 3.5 | 5.2 | 0.00 | 0.00 | 0.00 | 32 | 1016.2 |
| 20260507064521 | 64 | 81 | 3.5 | 4.3 | 0.00 | 0.00 | 0.00 | 32 | 1016.1 |
| 20260507064013 | 64 | 94 | 2.6 | 6.1 | 0.00 | 0.00 | 0.00 | 32 | 1016.1 |
| 20260507063508 | 64 | 85 | 3.5 | 6.1 | 0.00 | 0.00 | 0.00 | 33 | 1016.2 |
| 20260507063023 | 64 | 84 | 3.5 | 4.3 | 0.00 | 0.00 | 0.00 | 33 | 1016.2 |
| 20260507062512 | 64 | 92 | 2.6 | 3.5 | 0.00 | 0.00 | 0.00 | 32 | 1016.1 |
| 20260507062011 | 64 | 76 | 2.6 | 3.5 | 0.00 | 0.00 | 0.00 | 32 | 1016.1 |
| 20260507061530 | 64 | 89 | 1.7 | 3.5 | 0.00 | 0.00 | 0.00 | 32 | 1016.1 |
| 20260507061006 | 64 | 78 | 2.6 | 3.5 | 0.00 | 0.00 | 0.00 | 33 | 1016.1 |
| 20260507060508 | 65 | 77 | 2.6 | 3.5 | 0.00 | 0.00 | 0.00 | 33 | 1016.1 |
| 20260507060026 | 65 | 71 | 2.6 | 2.6 | 0.00 | 0.00 | 0.00 | 32 | 1016.1 |
| 20260507055509 | 65 | 78 | 1.7 | 2.6 | 0.00 | 0.00 | 0.00 | 33 | 1016.0 |
| 20260507055014 | 65 | 83 | 1.7 | 2.6 | 0.00 | 0.00 | 0.00 | 33 | 1016.0 |
| 20260507054516 | 65 | 82 | 1.7 | 2.6 | 0.00 | 0.00 | 0.00 | 33 | 1016.0 |
| 20260507054014 | 65 | 79 | 1.7 | 2.6 | 0.00 | 0.00 | 0.00 | 32 | 1016.0 |
| 20260507053510 | 65 | 76 | 1.7 | 2.6 | 0.00 | 0.00 | 0.00 | 33 | 1016.0 |
| 20260507053025 | 66 | 74 | 1.7 | 1.7 | 0.00 | 0.00 | 0.00 | 31 | 1016.0 |
| 20260507052510 | 66 | 78 | 0.9 | 1.7 | 0.00 | 0.00 | 0.00 | 31 | 1016.0 |
| 20260507052008 | 66 | 78 | 0.9 | 2.6 | 0.00 | 0.00 | 0.00 | 31 | 1016.0 |
| 20260507051531 | 66 | 70 | 1.7 | 2.6 | 0.00 | 0.00 | 0.00 | 32 | 1016.0 |
| 20260507051009 | 66 | 81 | 1.7 | 2.6 | 0.00 | 0.00 | 0.00 | 32 | 1016.0 |
| 20260507050509 | 66 | 67 | 0.9 | 1.7 | 0.00 | 0.00 | 0.00 | 31 | 1016.0 |
| 20260507050034 | 66 | 73 | 0.0 | 1.7 | 0.00 | 0.00 | 0.00 | 33 | 1016.0 |
| 20260507045509 | 66 | 75 | 1.7 | 2.6 | 0.00 | 0.00 | 0.00 | 31 | 1016.0 |
| 20260507045009 | 66 | 73 | 1.7 | 2.6 | 0.00 | 0.00 | 0.00 | 32 | 1015.9 |
| 20260507044519 | 66 | 74 | 1.7 | 1.7 | 0.00 | 0.00 | 0.00 | 31 | 1015.9 |
| 20260507044008 | 66 | 80 | 0.9 | 1.7 | 0.00 | 0.00 | 0.00 | 30 | 1015.9 |
| 20260507043508 | 67 | 83 | 0.9 | 1.7 | 0.00 | 0.00 | 0.00 | 30 | 1015.9 |
| 20260507043027 | 67 | 87 | 1.7 | 1.7 | 0.00 | 0.00 | 0.00 | 30 | 1015.8 |
| 20260507042509 | 67 | 93 | 0.9 | 0.9 | 0.00 | 0.00 | 0.00 | 30 | 1015.8 |
| 20260507042003 | 67 | 261 | 0.9 | 0.9 | 0.00 | 0.00 | 0.00 | 29 | 1015.7 |
| 20260507041504 | 68 | 261 | 0.9 | 0.9 | 0.00 | 0.00 | 0.00 | 30 | 1015.7 |
| 20260507041010 | 68 | 260 | 0.0 | 0.9 | 0.00 | 0.00 | 0.00 | 28 | 1015.6 |
| 20260507040507 | 69 | 260 | 0.0 | 0.0 | 0.00 | 0.00 | 0.00 | 28 | 1015.5 |
| 20260507040007 | 69 | 260 | 0.0 | 0.0 | 0.00 | 0.00 | 0.00 | 27 | 1015.5 |
| 20260507035504 | 69 | 260 | 0.0 | 0.9 | 0.00 | 0.00 | 0.00 | 27 | 1015.4 |
| 20260507035004 | 70 | 260 | 0.0 | 0.9 | 0.00 | 0.00 | 0.00 | 27 | 1015.4 |
| 20260507034529 | 70 | 260 | 0.0 | 1.7 | 0.00 | 0.00 | 0.00 | 27 | 1015.4 |
| 20260507034007 | 70 | 260 | 0.0 | 1.7 | 0.00 | 0.00 | 0.00 | 27 | 1015.3 |
| 20260507033508 | 71 | 260 | 0.0 | 1.7 | 0.00 | 0.00 | 0.00 | 26 | 1015.2 |
| 20260507033032 | 71 | 254 | 0.0 | 1.7 | 0.00 | 0.00 | 0.00 | 26 | 1015.2 |
| 20260507032513 | 72 | 226 | 0.9 | 1.7 | 0.00 | 0.00 | 0.00 | 25 | 1015.1 |
| 20260507032010 | 72 | 237 | 0.9 | 2.6 | 0.00 | 0.00 | 0.00 | 25 | 1015.1 |
| 20260507031522 | 72 | 257 | 1.7 | 3.5 | 0.00 | 0.00 | 0.00 | 26 | 1014.9 |
| 20260507031013 | 73 | 265 | 1.7 | 2.6 | 0.00 | 0.00 | 0.00 | 26 | 1014.8 |
| 20260507030506 | 73 | 259 | 0.9 | 4.3 | 0.00 | 0.00 | 0.00 | 25 | 1014.7 |
| 20260507030006 | 73 | 234 | 0.9 | 4.3 | 0.00 | 0.00 | 0.00 | 25 | 1014.7 |
| 20260507025505 | 74 | 248 | 0.9 | 2.6 | 0.00 | 0.00 | 0.00 | 25 | 1014.6 |
| 20260507025005 | 74 | 216 | 0.0 | 2.6 | 0.00 | 0.00 | 0.00 | 24 | 1014.5 |
| 20260507024512 | 74 | 223 | 0.9 | 3.5 | 0.00 | 0.00 | 0.00 | 24 | 1014.5 |
| 20260507024008 | 75 | 263 | 0.9 | 3.5 | 0.00 | 0.00 | 0.00 | 24 | 1014.4 |
| 20260507023507 | 75 | 269 | 0.9 | 5.2 | 0.00 | 0.00 | 0.00 | 24 | 1014.4 |
| 20260507023025 | 75 | 265 | 1.7 | 6.1 | 0.00 | 0.00 | 0.00 | 23 | 1014.3 |
| 20260507022507 | 76 | 242 | 1.7 | 6.1 | 0.00 | 0.00 | 0.00 | 24 | 1014.3 |
| 20260507022010 | 76 | 233 | 2.6 | 7.0 | 0.00 | 0.00 | 0.00 | 23 | 1014.2 |
| 20260507021522 | 76 | 262 | 2.6 | 7.0 | 0.00 | 0.00 | 0.00 | 23 | 1014.2 |
| 20260507021012 | 77 | 237 | 1.7 | 6.1 | 0.00 | 0.00 | 0.00 | 22 | 1014.1 |
| 20260507020512 | 77 | 266 | 1.7 | 8.7 | 0.00 | 0.00 | 0.00 | 23 | 1014.0 |
| 20260507020025 | 77 | 219 | 1.7 | 8.7 | 0.00 | 0.00 | 0.00 | 22 | 1014.0 |
| 20260507015504 | 78 | 287 | 2.6 | 7.0 | 0.00 | 0.00 | 0.00 | 22 | 1013.9 |
| 20260507015017 | 78 | 261 | 3.5 | 9.6 | 0.00 | 0.00 | 0.00 | 22 | 1013.9 |
| 20260507014513 | 78 | 275 | 3.5 | 9.6 | 0.00 | 0.00 | 0.00 | 22 | 1013.9 |
| 20260507014006 | 79 | 273 | 1.7 | 7.8 | 0.00 | 0.00 | 0.00 | 22 | 1013.8 |
| 20260507013510 | 79 | 268 | 2.6 | 7.8 | 0.00 | 0.00 | 0.00 | 22 | 1013.8 |
| 20260507013016 | 79 | 265 | 4.3 | 7.0 | 0.00 | 0.00 | 0.00 | 22 | 1013.8 |
| 20260507012509 | 79 | 271 | 2.6 | 5.2 | 0.00 | 0.00 | 0.00 | 22 | 1013.9 |
| 20260507012011 | 79 | 262 | 1.7 | 7.0 | 0.00 | 0.00 | 0.00 | 22 | 1013.9 |
| 20260507011522 | 79 | 281 | 4.3 | 7.0 | 0.00 | 0.00 | 0.00 | 21 | 1013.9 |
| 20260507011006 | 79 | 229 | 2.6 | 7.8 | 0.00 | 0.00 | 0.00 | 21 | 1013.9 |
| 20260507010506 | 80 | 219 | 4.3 | 8.7 | 0.00 | 0.00 | 0.00 | 21 | 1013.9 |
| 20260507010025 | 80 | 273 | 3.5 | 12.2 | 0.00 | 0.00 | 0.00 | 21 | 1013.8 |
| 20260507005511 | 80 | 264 | 6.1 | 12.2 | 0.00 | 0.00 | 0.00 | 21 | 1013.8 |
| 20260507005011 | 80 | 219 | 4.3 | 7.0 | 0.00 | 0.00 | 0.00 | 21 | 1013.8 |
| 20260507004509 | 80 | 209 | 3.5 | 7.0 | 0.00 | 0.00 | 0.00 | 21 | 1013.8 |
| 20260507004005 | 81 | 254 | 2.6 | 9.6 | 0.00 | 0.00 | 0.00 | 21 | 1013.8 |
| 20260507003510 | 81 | 240 | 2.6 | 9.6 | 0.00 | 0.00 | 0.00 | 21 | 1013.8 |
| 20260507003013 | 81 | 222 | 2.6 | 11.3 | 0.00 | 0.00 | 0.00 | 21 | 1013.8 |
| 20260507002505 | 81 | 270 | 2.6 | 11.3 | 0.00 | 0.00 | 0.00 | 20 | 1013.7 |
| 20260507002008 | 81 | 272 | 4.3 | 9.6 | 0.00 | 0.00 | 0.00 | 20 | 1013.7 |
| 20260507001518 | 81 | 263 | 4.3 | 9.6 | 0.00 | 0.00 | 0.00 | 21 | 1013.7 |
| 20260507001006 | 81 | 253 | 1.7 | 8.7 | 0.00 | 0.00 | 0.00 | 20 | 1013.7 |
| 20260507000509 | 81 | 254 | 3.5 | 9.6 | 0.00 | 0.00 | 0.00 | 21 | 1013.8 |
| 20260507000024 | 80 | 248 | 4.3 | 9.6 | 0.00 | 0.00 | 0.00 | 21 | 1013.7 |
| 20260506235507 | 80 | 219 | 2.6 | 10.4 | 0.00 | 0.00 | 0.00 | 21 | 1013.7 |
| 20260506235009 | 80 | 268 | 5.2 | 10.4 | 0.00 | 0.00 | 0.00 | 21 | 1013.7 |
| 20260506234526 | 80 | 196 | 3.5 | 8.7 | 0.00 | 0.00 | 0.00 | 21 | 1013.7 |
| 20260506234011 | 79 | 236 | 2.6 | 9.6 | 0.00 | 0.00 | 0.00 | 21 | 1013.7 |
| 20260506233508 | 80 | 118 | 4.3 | 9.6 | 0.00 | 0.00 | 0.00 | 20 | 1013.8 |
| 20260506233012 | 82 | 229 | 4.3 | 13.0 | 0.00 | 0.00 | 0.00 | 20 | 1013.9 |
| 20260506232504 | 82 | 265 | 5.2 | 13.0 | 0.00 | 0.00 | 0.00 | 20 | 1013.9 |
| 20260506232009 | 82 | 190 | 4.3 | 10.4 | 0.00 | 0.00 | 0.00 | 20 | 1013.8 |
| 20260506231516 | 83 | 265 | 1.7 | 7.8 | 0.00 | 0.00 | 0.00 | 19 | 1013.8 |
| 20260506231006 | 83 | 269 | 3.5 | 7.8 | 0.00 | 0.00 | 0.00 | 20 | 1013.9 |
| 20260506230505 | 82 | 267 | 2.6 | 8.7 | 0.00 | 0.00 | 0.00 | 20 | 1013.9 |
| 20260506230021 | 82 | 271 | 1.7 | 11.3 | 0.00 | 0.00 | 0.00 | 20 | 1013.9 |
| 20260506225508 | 82 | 278 | 6.1 | 11.3 | 0.00 | 0.00 | 0.00 | 20 | 1014.0 |
| 20260506225006 | 81 | 275 | 2.6 | 7.0 | 0.00 | 0.00 | 0.00 | 20 | 1014.0 |
| 20260506224504 | 82 | 221 | 2.6 | 12.2 | 0.00 | 0.00 | 0.00 | 20 | 1014.1 |
| 20260506224007 | 82 | 274 | 4.3 | 13.0 | 0.00 | 0.00 | 0.00 | 21 | 1014.1 |
| 20260506223512 | 81 | 270 | 7.0 | 13.0 | 0.00 | 0.00 | 0.00 | 21 | 1014.1 |
| 20260506223009 | 81 | 264 | 3.5 | 10.4 | 0.00 | 0.00 | 0.00 | 21 | 1014.2 |
| 20260506222510 | 83 | 142 | 1.7 | 10.4 | 0.00 | 0.00 | 0.00 | 20 | 1014.2 |
| 20260506222011 | 83 | 235 | 4.3 | 8.7 | 0.00 | 0.00 | 0.00 | 20 | 1014.3 |
| 20260506221516 | 83 | 231 | 5.2 | 10.4 | 0.00 | 0.00 | 0.00 | 20 | 1014.4 |
| 20260506221008 | 82 | 270 | 6.1 | 10.4 | 0.00 | 0.00 | 0.00 | 20 | 1014.5 |
| 20260506220507 | 81 | 304 | 2.6 | 8.7 | 0.00 | 0.00 | 0.00 | 21 | 1014.6 |
| 20260506220031 | 80 | 259 | 1.7 | 6.1 | 0.00 | 0.00 | 0.00 | 20 | 1014.6 |
| 20260506215508 | 82 | 217 | 2.6 | 10.4 | 0.00 | 0.00 | 0.00 | 19 | 1014.7 |
| 20260506215009 | 83 | 217 | 1.7 | 10.4 | 0.00 | 0.00 | 0.00 | 20 | 1014.8 |
| 20260506214527 | 83 | 249 | 5.2 | 7.8 | 0.00 | 0.00 | 0.00 | 20 | 1014.8 |
| 20260506214004 | 82 | 271 | 2.6 | 9.6 | 0.00 | 0.00 | 0.00 | 21 | 1014.9 |
| 20260506213503 | 80 | 262 | 6.1 | 9.6 | 0.00 | 0.00 | 0.00 | 22 | 1015.1 |
| 20260506213030 | 78 | 264 | 1.7 | 7.0 | 0.00 | 0.00 | 0.00 | 21 | 1015.2 |
| 20260506212503 | 79 | 95 | 4.3 | 7.0 | 0.00 | 0.00 | 0.00 | 21 | 1015.2 |
| 20260506212011 | 81 | 90 | 3.5 | 11.3 | 0.00 | 0.00 | 0.00 | 20 | 1015.3 |
| 20260506211513 | 81 | 246 | 7.0 | 11.3 | 0.00 | 0.00 | 0.00 | 20 | 1015.4 |
| 20260506211006 | 81 | 225 | 7.0 | 13.0 | 0.00 | 0.00 | 0.00 | 20 | 1015.4 |
| 20260506210507 | 82 | 129 | 4.3 | 13.0 | 0.00 | 0.00 | 0.00 | 20 | 1015.5 |
| 20260506210019 | 82 | 302 | 4.3 | 11.3 | 0.00 | 0.00 | 0.00 | 20 | 1015.6 |
| 20260506205510 | 82 | 279 | 7.0 | 11.3 | 0.00 | 0.00 | 0.00 | 20 | 1015.6 |
| 20260506205007 | 82 | 323 | 5.2 | 8.7 | 0.00 | 0.00 | 0.00 | 20 | 1015.7 |
| 20260506204522 | 82 | 149 | 2.6 | 9.6 | 0.00 | 0.00 | 0.00 | 20 | 1015.7 |
| 20260506204013 | 81 | 257 | 1.7 | 11.3 | 0.00 | 0.00 | 0.00 | 20 | 1015.8 |
| 20260506203507 | 80 | 261 | 7.0 | 11.3 | 0.00 | 0.00 | 0.00 | 21 | 1015.9 |
| 20260506203013 | 79 | 194 | 4.3 | 11.3 | 0.00 | 0.00 | 0.00 | 22 | 1015.9 |
| 20260506202503 | 80 | 140 | 4.3 | 13.0 | 0.00 | 0.00 | 0.00 | 21 | 1015.9 |
| 20260506202005 | 78 | 244 | 6.1 | 13.0 | 0.00 | 0.00 | 0.00 | 23 | 1016.0 |
| 20260506201525 | 79 | 126 | 7.8 | 12.2 | 0.00 | 0.00 | 0.00 | 22 | 1015.9 |
| 20260506201004 | 78 | 224 | 3.5 | 7.0 | 0.00 | 0.00 | 0.00 | 22 | 1016.0 |
| 20260506200506 | 78 | 149 | 3.5 | 7.0 | 0.00 | 0.00 | 0.00 | 22 | 1016.1 |
| 20260506200020 | 78 | 229 | 3.5 | 7.0 | 0.00 | 0.00 | 0.00 | 23 | 1016.2 |
| 20260506195510 | 79 | 88 | 4.3 | 13.0 | 0.00 | 0.00 | 0.00 | 22 | 1016.3 |
| 20260506195011 | 80 | 204 | 6.1 | 13.0 | 0.00 | 0.00 | 0.00 | 22 | 1016.3 |
| 20260506194504 | 80 | 265 | 2.6 | 6.1 | 0.00 | 0.00 | 0.00 | 21 | 1016.4 |
| 20260506194003 | 81 | 265 | 2.6 | 8.7 | 0.00 | 0.00 | 0.00 | 21 | 1016.4 |
| 20260506193512 | 80 | 272 | 3.5 | 8.7 | 0.00 | 0.00 | 0.00 | 21 | 1016.4 |
| 20260506193005 | 80 | 298 | 2.6 | 7.0 | 0.00 | 0.00 | 0.00 | 22 | 1016.5 |
| 20260506192502 | 81 | 81 | 1.7 | 7.0 | 0.00 | 0.00 | 0.00 | 21 | 1016.5 |
| 20260506192004 | 81 | 294 | 3.5 | 7.8 | 0.00 | 0.00 | 0.00 | 22 | 1016.5 |
| 20260506191508 | 81 | 255 | 4.3 | 10.4 | 0.00 | 0.00 | 0.00 | 22 | 1016.6 |
| 20260506191004 | 80 | 236 | 2.6 | 10.4 | 0.00 | 0.00 | 0.00 | 21 | 1016.5 |
| 20260506190504 | 79 | 258 | 4.3 | 10.4 | 0.00 | 0.00 | 0.00 | 23 | 1016.6 |
| 20260506190020 | 78 | 218 | 3.5 | 13.0 | 0.00 | 0.00 | 0.00 | 23 | 1016.6 |
| 20260506185506 | 77 | 231 | 7.8 | 13.0 | 0.00 | 0.00 | 0.00 | 24 | 1016.7 |
| 20260506185008 | 77 | 174 | 4.3 | 10.4 | 0.00 | 0.00 | 0.00 | 23 | 1016.7 |
| 20260506184526 | 77 | 328 | 2.6 | 7.8 | 0.00 | 0.00 | 0.00 | 24 | 1016.8 |
| 20260506184013 | 75 | 217 | 2.6 | 9.6 | 0.00 | 0.00 | 0.00 | 25 | 1017.0 |
| 20260506183507 | 76 | 198 | 3.5 | 9.6 | 0.00 | 0.00 | 0.00 | 24 | 1017.0 |
| 20260506183005 | 78 | 87 | 2.6 | 8.7 | 0.00 | 0.00 | 0.00 | 22 | 1017.1 |
| 20260506182503 | 78 | 226 | 3.5 | 8.7 | 0.00 | 0.00 | 0.00 | 23 | 1017.2 |
| 20260506182003 | 78 | 271 | 1.7 | 9.6 | 0.00 | 0.00 | 0.00 | 23 | 1017.2 |
| 20260506181509 | 78 | 277 | 3.5 | 10.4 | 0.00 | 0.00 | 0.00 | 24 | 1017.2 |
| 20260506181006 | 76 | 275 | 4.3 | 10.4 | 0.00 | 0.00 | 0.00 | 24 | 1017.2 |
| 20260506180506 | 74 | 213 | 2.6 | 7.8 | 0.00 | 0.00 | 0.00 | 25 | 1017.3 |
| 20260506180012 | 76 | 119 | 3.5 | 7.8 | 0.00 | 0.00 | 0.00 | 23 | 1017.3 |
| 20260506175506 | 78 | 281 | 1.7 | 7.8 | 0.00 | 0.00 | 0.00 | 23 | 1017.3 |
| 20260506175017 | 78 | 287 | 3.5 | 8.7 | 0.00 | 0.00 | 0.00 | 24 | 1017.3 |
| 20260506174517 | 77 | 195 | 0.9 | 9.6 | 0.00 | 0.00 | 0.00 | 24 | 1017.3 |
| 20260506174011 | 76 | 263 | 3.5 | 9.6 | 0.00 | 0.00 | 0.00 | 25 | 1017.5 |
| 20260506173512 | 75 | 263 | 0.0 | 6.1 | 0.00 | 0.00 | 0.00 | 26 | 1017.4 |
| 20260506173020 | 75 | 130 | 2.6 | 7.8 | 0.00 | 0.00 | 0.00 | 25 | 1017.4 |
| 20260506172503 | 75 | 188 | 4.3 | 7.8 | 0.00 | 0.00 | 0.00 | 26 | 1017.4 |
| 20260506172005 | 74 | 219 | 3.5 | 7.0 | 0.00 | 0.00 | 0.00 | 27 | 1017.4 |
| 20260506171504 | 75 | 149 | 2.6 | 6.1 | 0.00 | 0.00 | 0.00 | 26 | 1017.5 |
| 20260506171003 | 76 | 175 | 0.0 | 3.5 | 0.00 | 0.00 | 0.00 | 26 | 1017.5 |
| 20260506170505 | 76 | 9 | 0.9 | 6.1 | 0.00 | 0.00 | 0.00 | 26 | 1017.4 |
| 20260506170007 | 75 | 261 | 1.7 | 7.8 | 0.00 | 0.00 | 0.00 | 27 | 1017.4 |
| 20260506165506 | 73 | 227 | 2.6 | 7.8 | 0.00 | 0.00 | 0.00 | 27 | 1017.4 |
| 20260506165004 | 73 | 211 | 1.7 | 6.1 | 0.00 | 0.00 | 0.00 | 28 | 1017.4 |
| 20260506164514 | 72 | 225 | 1.7 | 5.2 | 0.00 | 0.00 | 0.00 | 29 | 1017.3 |
| 20260506164007 | 72 | 200 | 2.6 | 8.7 | 0.00 | 0.00 | 0.00 | 29 | 1017.3 |
| 20260506163511 | 72 | 195 | 5.2 | 8.7 | 0.00 | 0.00 | 0.00 | 29 | 1017.3 |
| 20260506163018 | 73 | 86 | 0.9 | 4.3 | 0.00 | 0.00 | 0.00 | 28 | 1017.3 |
| 20260506162508 | 72 | 212 | 0.9 | 4.3 | 0.00 | 0.00 | 0.00 | 29 | 1017.3 |
| 20260506162013 | 72 | 81 | 1.7 | 3.5 | 0.00 | 0.00 | 0.00 | 28 | 1017.3 |
| 20260506161504 | 72 | 223 | 0.0 | 3.5 | 0.00 | 0.00 | 0.00 | 29 | 1017.3 |
| 20260506161004 | 71 | 223 | 1.7 | 4.3 | 0.00 | 0.00 | 0.00 | 30 | 1017.3 |
| 20260506160504 | 69 | 262 | 3.5 | 6.1 | 0.00 | 0.00 | 0.00 | 31 | 1017.3 |